owner,sensor,date,latitude,longitude,vertical_datum,direction_of_sea_water_velocity,sea_water_speed,upward_sea_water_velocity,qcFlag 
TABS,ioos:station:wmo:42050:1,2007-07-01T00:00:00Z,28.8425,-94.2433,2.0,191.9933522,35.99575669,-99999.0,'11111222,11111222,99999999' 
TABS,ioos:station:wmo:42050:1,2007-07-01T17:00:00Z,28.8425,-94.2433,2.0,137.9930198,26.00043077,-99999.0,'11111222,11111222,99999999' 
TABS,ioos:station:wmo:42050:1,2007-07-01T17:30:00Z,28.8425,-94.2433,2.0,145.9919364,25.99642475,-99999.0,'11111222,11111222,99999999' 
TABS,ioos:station:wmo:42050:1,2007-07-01T18:00:00Z,28.8425,-94.2433,2.0,143.9959055,26.99708318,-99999.0,'11111222,11111222,99999999' 
TABS,ioos:station:wmo:42050:1,2007-07-01T18:30:00Z,28.8425,-94.2433,2.0,151.9960587,26.00472457,-99999.0,'11111222,11111222,99999999' 
TABS,ioos:station:wmo:42050:1,2007-07-01T19:00:00Z,28.8425,-94.2433,2.0,147.0050218,24.00087082,-99999.0,'11111222,11111222,99999999' 
TABS,ioos:station:wmo:42050:1,2007-07-01T19:30:00Z,28.8425,-94.2433,2.0,151.9893867,24.99824994,-99999.0,'11111222,11111222,99999999' 
TABS,ioos:station:wmo:42050:1,2007-07-01T20:00:00Z,28.8425,-94.2433,2.0,156.0095297,22.99657801,-99999.0,'11111222,11111222,99999999' 
TABS,ioos:station:wmo:42050:1,2007-07-01T20:30:00Z,28.8425,-94.2433,2.0,154.9926448,25.00400968,-99999.0,'11111222,11111222,99999999' 
TABS,ioos:station:wmo:42050:1,2007-07-01T21:00:00Z,28.8425,-94.2433,2.0,151.9893867,24.99824994,-99999.0,'11111222,11111222,99999999' 
TABS,ioos:station:wmo:42050:1,2007-07-01T21:30:00Z,28.8425,-94.2433,2.0,155.9881316,25.99997885,-99999.0,'11111222,11111222,99999999' 
TABS,ioos:station:wmo:42050:1,2007-07-01T22:00:00Z,28.8425,-94.2433,2.0,158.0053048,26.99468466,-99999.0,'11111222,11111222,99999999' 
TABS,ioos:station:wmo:42050:1,2007-07-01T22:30:00Z,28.8425,-94.2433,2.0,163.999344,30.00230824,-99999.0,'11111222,11111222,99999999' 
TABS,ioos:station:wmo:42050:1,2007-07-01T23:00:00Z,28.8425,-94.2433,2.0,161.9952443,31.99682797,-99999.0,'11111222,11111222,99999999' 
TABS,ioos:station:wmo:42050:1,2007-07-01T23:30:00Z,28.8425,-94.2433,2.0,165.0038189,31.99978906,-99999.0,'11111222,11111222,99999999' 
TABS,ioos:station:wmo:42050:1,2007-07-02T00:00:00Z,28.8425,-94.2433,2.0,170.0008847,33.00125604,-99999.0,'11111222,11111222,99999999' 
TABS,ioos:station:wmo:42050:1,2007-07-02T00:30:00Z,28.8425,-94.2433,2.0,172.9932181,30.00406639,-99999.0,'11111222,11111222,99999999' 
TABS,ioos:station:wmo:42050:1,2007-07-02T01:00:00Z,28.8425,-94.2433,2.0,179.9997895,29.0,-99999.0,'11111222,11111222,99999999' 
TABS,ioos:station:wmo:42050:1,2007-07-02T01:30:00Z,28.8425,-94.2433,2.0,188.0038431,27.00305909,-99999.0,'11111222,11111222,99999999' 
TABS,ioos:station:wmo:42050:1,2007-07-02T02:00:00Z,28.8425,-94.2433,2.0,196.9987702,25.99576119,-99999.0,'11111222,11111222,99999999' 
TABS,ioos:station:wmo:42050:1,2007-07-02T02:30:00Z,28.8425,-94.2433,2.0,206.0156359,20.99764272,-99999.0,'11111222,11111222,99999999' 
TABS,ioos:station:wmo:42050:1,2007-07-02T03:00:00Z,28.8425,-94.2433,2.0,208.9928214,19.00127627,-99999.0,'11111222,11111222,99999999' 
TABS,ioos:station:wmo:42050:1,2007-07-02T03:30:00Z,28.8425,-94.2433,2.0,213.0011619,15.00017667,-99999.0,'11111222,11111222,99999999' 
TABS,ioos:station:wmo:42050:1,2007-07-02T04:00:00Z,28.8425,-94.2433,2.0,221.9940006,12.00197067,-99999.0,'11111222,11111222,99999999' 
TABS,ioos:station:wmo:42050:1,2007-07-02T04:30:00Z,28.8425,-94.2433,2.0,252.0075683,9.00011111,-99999.0,'11133222,11111222,99999999' 
TABS,ioos:station:wmo:42050:1,2007-07-02T05:00:00Z,28.8425,-94.2433,2.0,281.0013323,12.00052082,-99999.0,'11111222,11111222,99999999' 
TABS,ioos:station:wmo:42050:1,2007-07-02T05:30:00Z,28.8425,-94.2433,2.0,290.0098287,13.00503364,-99999.0,'11111222,11111222,99999999' 
TABS,ioos:station:wmo:42050:1,2007-07-02T06:00:00Z,28.8425,-94.2433,2.0,313.9872357,15.99725601,-99999.0,'11111222,11111222,99999999' 
TABS,ioos:station:wmo:42050:1,2007-07-02T06:30:00Z,28.8425,-94.2433,2.0,320.9880978,15.997181,-99999.0,'11111222,11111222,99999999' 
TABS,ioos:station:wmo:42050:1,2007-07-02T07:00:00Z,28.8425,-94.2433,2.0,325.9824243,15.99781548,-99999.0,'11111222,11111222,99999999' 
TABS,ioos:station:wmo:42050:1,2007-07-02T07:30:00Z,28.8425,-94.2433,2.0,328.9906846,15.00441602,-99999.0,'11111222,11111222,99999999' 
TABS,ioos:station:wmo:42050:1,2007-07-02T08:00:00Z,28.8425,-94.2433,2.0,348.0162691,13.00339956,-99999.0,'11111222,11111222,99999999' 
TABS,ioos:station:wmo:42050:1,2007-07-02T08:30:00Z,28.8425,-94.2433,2.0,8.984272929,12.99948076,-99999.0,'11111222,11111222,99999999' 
TABS,ioos:station:wmo:42050:1,2007-07-02T09:00:00Z,28.8425,-94.2433,2.0,0.000210459,13.0,-99999.0,'11111222,11111222,99999999' 
TABS,ioos:station:wmo:42050:1,2007-07-02T09:30:00Z,28.8425,-94.2433,2.0,18.02087561,13.99660673,-99999.0,'11111222,11111222,99999999' 
TABS,ioos:station:wmo:42050:1,2007-07-02T10:00:00Z,28.8425,-94.2433,2.0,38.98532958,10.99949544,-99999.0,'11111222,11111222,99999999' 
TABS,ioos:station:wmo:42050:1,2007-07-02T10:30:00Z,28.8425,-94.2433,2.0,53.00674477,12.99603016,-99999.0,'11111222,11111222,99999999' 
TABS,ioos:station:wmo:42050:1,2007-07-02T11:00:00Z,28.8425,-94.2433,2.0,65.99877516,11.99733304,-99999.0,'11111222,11111222,99999999' 
TABS,ioos:station:wmo:42050:1,2007-07-02T11:30:00Z,28.8425,-94.2433,2.0,76.99467536,11.99775396,-99999.0,'11111222,11111222,99999999' 
TABS,ioos:station:wmo:42050:1,2007-07-02T12:00:00Z,28.8425,-94.2433,2.0,90.0,12.0,-99999.0,'11111222,11111222,99999999' 
TABS,ioos:station:wmo:42050:1,2007-07-02T12:30:00Z,28.8425,-94.2433,2.0,98.99813276,14.00232124,-99999.0,'11111222,11111222,99999999' 
TABS,ioos:station:wmo:42050:1,2007-07-02T13:00:00Z,28.8425,-94.2433,2.0,107.9872926,17.0009235,-99999.0,'11111222,11111222,99999999' 
TABS,ioos:station:wmo:42050:1,2007-07-02T13:30:00Z,28.8425,-94.2433,2.0,115.9922024,16.99943823,-99999.0,'11111222,11111222,99999999' 
TABS,ioos:station:wmo:42050:1,2007-07-02T14:00:00Z,28.8425,-94.2433,2.0,119.9934969,16.0031122,-99999.0,'11111222,11111222,99999999' 
TABS,ioos:station:wmo:42050:1,2007-07-02T14:30:00Z,28.8425,-94.2433,2.0,112.988663,18.99885523,-99999.0,'11111222,11111222,99999999' 
TABS,ioos:station:wmo:42050:1,2007-07-02T15:00:00Z,28.8425,-94.2433,2.0,161.999757,19.99881997,-99999.0,'11111222,11111222,99999999' 
TABS,ioos:station:wmo:42050:1,2007-07-02T15:30:00Z,28.8425,-94.2433,2.0,112.989551,17.99960555,-99999.0,'11111222,11111222,99999999' 
TABS,ioos:station:wmo:42050:1,2007-07-02T16:00:00Z,28.8425,-94.2433,2.0,118.9930319,19.00127627,-99999.0,'11111222,11111222,99999999' 
TABS,ioos:station:wmo:42050:1,2007-07-02T16:30:00Z,28.8425,-94.2433,2.0,116.0158463,20.99764272,-99999.0,'11111222,11111222,99999999' 
TABS,ioos:station:wmo:42050:1,2007-07-02T17:00:00Z,28.8425,-94.2433,2.0,114.0012248,20.99533281,-99999.0,'11111222,11111222,99999999' 
TABS,ioos:station:wmo:42050:1,2007-07-02T17:30:00Z,28.8425,-94.2433,2.0,106.9935509,22.00060226,-99999.0,'11111222,11111222,99999999' 
TABS,ioos:station:wmo:42050:1,2007-07-02T18:00:00Z,28.8425,-94.2433,2.0,113.0104581,22.00051136,-99999.0,'11111222,11111222,99999999' 
TABS,ioos:station:wmo:42050:1,2007-07-02T18:30:00Z,28.8425,-94.2433,2.0,118.9935918,21.00212608,-99999.0,'11111222,11111222,99999999' 
TABS,ioos:station:wmo:42050:1,2007-07-02T19:00:00Z,28.8425,-94.2433,2.0,121.9973884,23.00513421,-99999.0,'11111222,11111222,99999999' 
TABS,ioos:station:wmo:42050:1,2007-07-02T19:30:00Z,28.8425,-94.2433,2.0,128.9982809,22.9938644,-99999.0,'11111222,11111222,99999999' 
TABS,ioos:station:wmo:42050:1,2007-07-02T20:00:00Z,28.8425,-94.2433,2.0,123.0013723,30.00035333,-99999.0,'11111222,11111222,99999999' 
TABS,ioos:station:wmo:42050:1,2007-07-02T20:30:00Z,28.8425,-94.2433,2.0,131.9977618,31.99807025,-99999.0,'11111222,11111222,99999999' 
TABS,ioos:station:wmo:42050:1,2007-07-02T21:00:00Z,28.8425,-94.2433,2.0,136.9979323,29.00193959,-99999.0,'11111222,11111222,99999999' 
TABS,ioos:station:wmo:42050:1,2007-07-02T21:30:00Z,28.8425,-94.2433,2.0,144.0023957,30.99959355,-99999.0,'11111222,11111222,99999999' 
TABS,ioos:station:wmo:42050:1,2007-07-02T22:00:00Z,28.8425,-94.2433,2.0,146.0068623,31.99832808,-99999.0,'11111222,11111222,99999999' 
TABS,ioos:station:wmo:42050:1,2007-07-02T22:30:00Z,28.8425,-94.2433,2.0,148.9887928,26.99903146,-99999.0,'11111222,11111222,99999999' 
TABS,ioos:station:wmo:42050:1,2007-07-02T23:00:00Z,28.8425,-94.2433,2.0,155.9979485,31.00055645,-99999.0,'11111222,11111222,99999999' 
TABS,ioos:station:wmo:42050:1,2007-07-02T23:30:00Z,28.8425,-94.2433,2.0,164.994604,38.00591664,-99999.0,'11111222,11111222,99999999' 
TABS,ioos:station:wmo:42050:1,2007-07-03T00:00:00Z,28.8425,-94.2433,2.0,170.0055015,33.99588799,-99999.0,'11111222,11111222,99999999' 
TABS,ioos:station:wmo:42050:1,2007-07-03T00:30:00Z,28.8425,-94.2433,2.0,174.0004719,30.99978226,-99999.0,'11111222,11111222,99999999' 
TABS,ioos:station:wmo:42050:1,2007-07-03T01:00:00Z,28.8425,-94.2433,2.0,183.0010661,89.00207863,-99999.0,'11111222,11111222,99999999' 
TABS,ioos:station:wmo:42050:1,2007-07-03T01:30:00Z,28.8425,-94.2433,2.0,190.9919924,29.00209992,-99999.0,'11111222,11111222,99999999' 
TABS,ioos:station:wmo:42050:1,2007-07-03T02:00:00Z,28.8425,-94.2433,2.0,188.9979223,28.00464247,-99999.0,'11111222,11111222,99999999' 
TABS,ioos:station:wmo:42050:1,2007-07-03T02:30:00Z,28.8425,-94.2433,2.0,210.0043992,28.99589799,-99999.0,'11111222,11111222,99999999' 
TABS,ioos:station:wmo:42050:1,2007-07-03T03:00:00Z,28.8425,-94.2433,2.0,212.9995625,32.00297642,-99999.0,'11111222,11111222,99999999' 
TABS,ioos:station:wmo:42050:1,2007-07-03T03:30:00Z,28.8425,-94.2433,2.0,232.9943254,32.99609219,-99999.0,'11111222,11111222,99999999' 
TABS,ioos:station:wmo:42050:1,2007-07-03T04:00:00Z,28.8425,-94.2433,2.0,233.9999328,32.00169058,-99999.0,'11111222,11111222,99999999' 
TABS,ioos:station:wmo:42050:1,2007-07-03T04:30:00Z,28.8425,-94.2433,2.0,248.0006187,34.99820853,-99999.0,'11111222,11111222,99999999' 
TABS,ioos:station:wmo:42050:1,2007-07-03T05:00:00Z,28.8425,-94.2433,2.0,260.0055411,31.00040806,-99999.0,'11111222,11111222,99999999' 
TABS,ioos:station:wmo:42050:1,2007-07-03T05:30:00Z,28.8425,-94.2433,2.0,206.0156359,13.99842848,-99999.0,'11111222,11111222,99999999' 
TABS,ioos:station:wmo:42050:1,2007-07-03T06:00:00Z,28.8425,-94.2433,2.0,278.9917798,27.00180179,-99999.0,'11111222,11111222,99999999' 
TABS,ioos:station:wmo:42050:1,2007-07-03T06:30:00Z,28.8425,-94.2433,2.0,278.9917798,27.00180179,-99999.0,'11111222,11111222,99999999' 
TABS,ioos:station:wmo:42050:1,2007-07-03T07:00:00Z,28.8425,-94.2433,2.0,293.9930151,27.003135,-99999.0,'11111222,11111222,99999999' 
TABS,ioos:station:wmo:42050:1,2007-07-03T07:30:00Z,28.8425,-94.2433,2.0,305.0027884,27.00434224,-99999.0,'11111222,11111222,99999999' 
TABS,ioos:station:wmo:42050:1,2007-07-03T08:00:00Z,28.8425,-94.2433,2.0,305.0051609,21.99965454,-99999.0,'11111222,11111222,99999999' 
TABS,ioos:station:wmo:42050:1,2007-07-03T08:30:00Z,28.8425,-94.2433,2.0,325.9989973,47.99614255,-99999.0,'11111222,11111222,99999999' 
TABS,ioos:station:wmo:42050:1,2007-07-03T09:00:00Z,28.8425,-94.2433,2.0,0.000210459,39.0,-99999.0,'11111222,11111222,99999999' 
TABS,ioos:station:wmo:42050:1,2007-07-03T09:30:00Z,28.8425,-94.2433,2.0,337.9984405,43.00173252,-99999.0,'11111222,11111222,99999999' 
TABS,ioos:station:wmo:42050:1,2007-07-03T10:00:00Z,28.8425,-94.2433,2.0,346.9959604,39.99576103,-99999.0,'11111222,11111222,99999999' 
TABS,ioos:station:wmo:42050:1,2007-07-03T10:30:00Z,28.8425,-94.2433,2.0,354.0030573,37.99796047,-99999.0,'11111222,11111222,99999999' 
TABS,ioos:station:wmo:42050:1,2007-07-03T11:00:00Z,28.8425,-94.2433,2.0,12.00157215,39.00249479,-99999.0,'11111222,11111222,99999999' 
TABS,ioos:station:wmo:42050:1,2007-07-03T11:30:00Z,28.8425,-94.2433,2.0,10.99961409,37.99805916,-99999.0,'11111222,11111222,99999999' 
TABS,ioos:station:wmo:42050:1,2007-07-03T12:00:00Z,28.8425,-94.2433,2.0,13.99733813,32.00015781,-99999.0,'11111222,11111222,99999999' 
TABS,ioos:station:wmo:42050:1,2007-07-03T12:30:00Z,28.8425,-94.2433,2.0,14.99645231,33.00403006,-99999.0,'11111222,11111222,99999999' 
TABS,ioos:station:wmo:42050:1,2007-07-03T13:00:00Z,28.8425,-94.2433,2.0,18.00680708,32.99612705,-99999.0,'11111222,11111222,99999999' 
TABS,ioos:station:wmo:42050:1,2007-07-03T13:30:00Z,28.8425,-94.2433,2.0,23.00531179,35.00386836,-99999.0,'11111222,11111222,99999999' 
TABS,ioos:station:wmo:42050:1,2007-07-03T14:00:00Z,28.8425,-94.2433,2.0,37.996421,28.99560311,-99999.0,'11111222,11111222,99999999' 
TABS,ioos:station:wmo:42050:1,2007-07-03T14:30:00Z,28.8425,-94.2433,2.0,43.99364597,30.99727246,-99999.0,'11111222,11111222,99999999' 
TABS,ioos:station:wmo:42050:1,2007-07-03T15:00:00Z,28.8425,-94.2433,2.0,61.99626917,26.00472457,-99999.0,'11111222,11111222,99999999' 
TABS,ioos:station:wmo:42050:1,2007-07-03T15:30:00Z,28.8425,-94.2433,2.0,86.01352682,21.00081189,-99999.0,'11111222,11111222,99999999' 
TABS,ioos:station:wmo:42050:1,2007-07-03T16:00:00Z,28.8425,-94.2433,2.0,95.99073367,22.99558436,-99999.0,'11111222,11111222,99999999' 
TABS,ioos:station:wmo:42050:1,2007-07-03T16:30:00Z,28.8425,-94.2433,2.0,88.99170074,25.0038717,-99999.0,'11111222,11111222,99999999' 
TABS,ioos:station:wmo:42050:1,2007-07-03T17:00:00Z,28.8425,-94.2433,2.0,86.01272086,22.00325885,-99999.0,'11111222,11111222,99999999' 
TABS,ioos:station:wmo:42050:1,2007-07-03T17:30:00Z,28.8425,-94.2433,2.0,83.99725557,24.00160411,-99999.0,'11111222,11111222,99999999' 
TABS,ioos:station:wmo:42050:1,2007-07-03T18:00:00Z,28.8425,-94.2433,2.0,90.0,25.0,-99999.0,'11111222,11111222,99999999' 
TABS,ioos:station:wmo:42050:1,2007-07-03T18:30:00Z,28.8425,-94.2433,2.0,86.00909623,25.00062399,-99999.0,'11111222,11111222,99999999' 
TABS,ioos:station:wmo:42050:1,2007-07-03T19:00:00Z,28.8425,-94.2433,2.0,90.0,29.0,-99999.0,'11111222,11111222,99999999' 
TABS,ioos:station:wmo:42050:1,2007-07-03T19:30:00Z,28.8425,-94.2433,2.0,90.0,31.0,-99999.0,'11111222,11111222,99999999' 
TABS,ioos:station:wmo:42050:1,2007-07-03T20:00:00Z,28.8425,-94.2433,2.0,92.99113851,32.00360136,-99999.0,'11111222,11111222,99999999' 
TABS,ioos:station:wmo:42050:1,2007-07-03T20:30:00Z,28.8425,-94.2433,2.0,90.0,33.0,-99999.0,'11111222,11111222,99999999' 
TABS,ioos:station:wmo:42050:1,2007-07-03T21:00:00Z,28.8425,-94.2433,2.0,104.0003504,31.00090966,-99999.0,'11111222,11111222,99999999' 
TABS,ioos:station:wmo:42050:1,2007-07-03T21:30:00Z,28.8425,-94.2433,2.0,106.9973791,30.00048333,-99999.0,'11111222,11111222,99999999' 
TABS,ioos:station:wmo:42050:1,2007-07-03T22:00:00Z,28.8425,-94.2433,2.0,139.9978252,28.0018303,-99999.0,'11111222,11111222,99999999' 
TABS,ioos:station:wmo:42050:1,2007-07-03T22:30:00Z,28.8425,-94.2433,2.0,164.0019544,26.99548296,-99999.0,'11111222,11111222,99999999' 
TABS,ioos:station:wmo:42050:1,2007-07-03T23:00:00Z,28.8425,-94.2433,2.0,167.9897151,25.99909614,-99999.0,'11111222,11111222,99999999' 
TABS,ioos:station:wmo:42050:1,2007-07-03T23:30:00Z,28.8425,-94.2433,2.0,171.0085633,23.9948432,-99999.0,'11111222,11111222,99999999' 
TABS,ioos:station:wmo:42050:1,2007-07-04T00:00:00Z,28.8425,-94.2433,2.0,172.9966377,20.99664735,-99999.0,'11111222,11111222,99999999' 
TABS,ioos:station:wmo:42050:1,2007-07-04T00:30:00Z,28.8425,-94.2433,2.0,191.0033047,22.00454499,-99999.0,'11111222,11111222,99999999' 
TABS,ioos:station:wmo:42050:1,2007-07-04T01:00:00Z,28.8425,-94.2433,2.0,195.0086681,20.00236986,-99999.0,'11111222,11111222,99999999' 
TABS,ioos:station:wmo:42050:1,2007-07-04T01:30:00Z,28.8425,-94.2433,2.0,192.0018241,18.99523361,-99999.0,'11111222,11111222,99999999' 
TABS,ioos:station:wmo:42050:1,2007-07-04T02:00:00Z,28.8425,-94.2433,2.0,179.9997895,16.0,-99999.0,'11111222,11111222,99999999' 
TABS,ioos:station:wmo:42050:1,2007-07-04T02:30:00Z,28.8425,-94.2433,2.0,193.9825328,12.99506445,-99999.0,'11111222,11111222,99999999' 
TABS,ioos:station:wmo:42050:1,2007-07-04T03:00:00Z,28.8425,-94.2433,2.0,222.0140141,10.99629483,-99999.0,'11111222,11111222,99999999' 
TABS,ioos:station:wmo:42050:1,2007-07-04T03:30:00Z,28.8425,-94.2433,2.0,224.9996843,9.998489886,-99999.0,'11133222,11111222,99999999' 
TABS,ioos:station:wmo:42050:1,2007-07-04T04:00:00Z,28.8425,-94.2433,2.0,245.0288882,9.00142211,-99999.0,'11133222,11111222,99999999' 
TABS,ioos:station:wmo:42050:1,2007-07-04T04:30:00Z,28.8425,-94.2433,2.0,299.9939178,16.0031122,-99999.0,'11111222,11111222,99999999' 
TABS,ioos:station:wmo:42050:1,2007-07-04T05:00:00Z,28.8425,-94.2433,2.0,311.9828032,17.99961111,-99999.0,'11111222,11111222,99999999' 
TABS,ioos:station:wmo:42050:1,2007-07-04T06:00:00Z,28.8425,-94.2433,2.0,305.9951601,22.0005659,-99999.0,'11111222,11111222,99999999' 
TABS,ioos:station:wmo:42050:1,2007-07-04T06:30:00Z,28.8425,-94.2433,2.0,299.0109031,24.00145204,-99999.0,'11111222,11111222,99999999' 
TABS,ioos:station:wmo:42050:1,2007-07-04T07:00:00Z,28.8425,-94.2433,2.0,299.0054825,26.99592932,-99999.0,'11111222,11111222,99999999' 
TABS,ioos:station:wmo:42050:1,2007-07-04T07:30:00Z,28.8425,-94.2433,2.0,305.9978148,30.99959355,-99999.0,'11111222,11111222,99999999' 
TABS,ioos:station:wmo:42050:1,2007-07-04T08:00:00Z,28.8425,-94.2433,2.0,304.9967604,31.99510275,-99999.0,'11111222,11111222,99999999' 
TABS,ioos:station:wmo:42050:1,2007-07-04T08:30:00Z,28.8425,-94.2433,2.0,308.9934443,40.00146247,-99999.0,'11111222,11111222,99999999' 
TABS,ioos:station:wmo:42050:1,2007-07-04T09:00:00Z,28.8425,-94.2433,2.0,322.993534,36.00210272,-99999.0,'11111222,11111222,99999999' 
TABS,ioos:station:wmo:42050:1,2007-07-04T09:30:00Z,28.8425,-94.2433,2.0,326.0056718,36.00332485,-99999.0,'11111222,11111222,99999999' 
TABS,ioos:station:wmo:42050:1,2007-07-04T10:00:00Z,28.8425,-94.2433,2.0,323.9963264,35.9961109,-99999.0,'11111222,11111222,99999999' 
TABS,ioos:station:wmo:42050:1,2007-07-04T10:30:00Z,28.8425,-94.2433,2.0,328.9921504,31.00009355,-99999.0,'11111222,11111222,99999999' 
TABS,ioos:station:wmo:42050:1,2007-07-04T11:00:00Z,28.8425,-94.2433,2.0,342.0053349,27.99963214,-99999.0,'11111222,11111222,99999999' 
TABS,ioos:station:wmo:42050:1,2007-07-04T11:30:00Z,28.8425,-94.2433,2.0,335.0093341,28.00166602,-99999.0,'11111222,11111222,99999999' 
TABS,ioos:station:wmo:42050:1,2007-07-04T12:00:00Z,28.8425,-94.2433,2.0,337.9923031,33.99732342,-99999.0,'11111222,11111222,99999999' 
TABS,ioos:station:wmo:42050:1,2007-07-04T12:30:00Z,28.8425,-94.2433,2.0,353.9944313,28.00370333,-99999.0,'11111222,11111222,99999999' 
TABS,ioos:station:wmo:42050:1,2007-07-04T13:00:00Z,28.8425,-94.2433,2.0,6.001023504,22.00055454,-99999.0,'11111222,11111222,99999999' 
TABS,ioos:station:wmo:42050:1,2007-07-04T13:30:00Z,28.8425,-94.2433,2.0,21.00887638,19.99944499,-99999.0,'11111222,11111222,99999999' 
TABS,ioos:station:wmo:42050:1,2007-07-04T14:00:00Z,28.8425,-94.2433,2.0,29.00980215,26.00230182,-99999.0,'11111222,11111222,99999999' 
TABS,ioos:station:wmo:42050:1,2007-07-04T14:30:00Z,28.8425,-94.2433,2.0,38.9955319,23.99651016,-99999.0,'11111222,11111222,99999999' 
TABS,ioos:station:wmo:42050:1,2007-07-04T15:00:00Z,28.8425,-94.2433,2.0,50.00951275,22.99810427,-99999.0,'11111222,11111222,99999999' 
TABS,ioos:station:wmo:42050:1,2007-07-04T15:30:00Z,28.8425,-94.2433,2.0,59.99597155,16.99789399,-99999.0,'11111222,11111222,99999999' 
TABS,ioos:station:wmo:42050:1,2007-07-04T16:00:00Z,28.8425,-94.2433,2.0,39.01232313,15.997181,-99999.0,'11111222,11111222,99999999' 
TABS,ioos:station:wmo:42050:1,2007-07-04T16:30:00Z,28.8425,-94.2433,2.0,43.98702522,15.99725601,-99999.0,'11111222,11111222,99999999' 
TABS,ioos:station:wmo:42050:1,2007-07-04T17:00:00Z,28.8425,-94.2433,2.0,47.98893377,16.00238107,-99999.0,'11111222,11111222,99999999' 
TABS,ioos:station:wmo:42050:1,2007-07-04T17:30:00Z,28.8425,-94.2433,2.0,53.99266446,19.00015263,-99999.0,'11111222,11111222,99999999' 
TABS,ioos:station:wmo:42050:1,2007-07-04T18:00:00Z,28.8425,-94.2433,2.0,41.98259272,17.99961111,-99999.0,'11111222,11111222,99999999' 
TABS,ioos:station:wmo:42050:1,2007-07-04T18:30:00Z,28.8425,-94.2433,2.0,53.0012897,16.00204049,-99999.0,'11111222,11111222,99999999' 
TABS,ioos:station:wmo:42050:1,2007-07-04T19:00:00Z,28.8425,-94.2433,2.0,52.98429237,10.99603565,-99999.0,'11111222,11111222,99999999' 
TABS,ioos:station:wmo:42050:1,2007-07-04T19:30:00Z,28.8425,-94.2433,2.0,36.00409451,8.999027725,-99999.0,'11133222,11111222,99999999' 
TABS,ioos:station:wmo:42050:1,2007-07-04T20:00:00Z,28.8425,-94.2433,2.0,41.99442152,12.00197067,-99999.0,'11111222,11111222,99999999' 
TABS,ioos:station:wmo:42050:1,2007-07-04T20:30:00Z,28.8425,-94.2433,2.0,33.00552071,12.99755362,-99999.0,'11111222,11111222,99999999' 
TABS,ioos:station:wmo:42050:1,2007-07-04T21:00:00Z,28.8425,-94.2433,2.0,26.01605679,13.99842848,-99999.0,'11111222,11111222,99999999' 
TABS,ioos:station:wmo:42050:1,2007-07-04T21:30:00Z,28.8425,-94.2433,2.0,31.99759886,23.00513421,-99999.0,'11111222,11111222,99999999' 
TABS,ioos:station:wmo:42050:1,2007-07-04T22:00:00Z,28.8425,-94.2433,2.0,37.99772523,24.99884197,-99999.0,'11111222,11111222,99999999' 
TABS,ioos:station:wmo:42050:1,2007-07-04T22:30:00Z,28.8425,-94.2433,2.0,59.0060847,26.0026191,-99999.0,'11111222,11111222,99999999' 
TABS,ioos:station:wmo:42050:1,2007-07-04T23:00:00Z,28.8425,-94.2433,2.0,339.0063084,16.99838228,-99999.0,'11111222,11111222,99999999' 
TABS,ioos:station:wmo:42050:1,2007-07-04T23:30:00Z,28.8425,-94.2433,2.0,74.99091034,18.99812886,-99999.0,'11111222,11111222,99999999' 
TABS,ioos:station:wmo:42050:1,2007-07-05T00:00:00Z,28.8425,-94.2433,2.0,83.99100809,17.00342613,-99999.0,'11111222,11111222,99999999' 
TABS,ioos:station:wmo:42050:1,2007-07-05T00:30:00Z,28.8425,-94.2433,2.0,90.0,12.0,-99999.0,'11111222,11111222,99999999' 
TABS,ioos:station:wmo:42050:1,2007-07-05T01:00:00Z,28.8425,-94.2433,2.0,130.9972462,8.002755775,-99999.0,'11133222,11111222,99999999' 
TABS,ioos:station:wmo:42050:1,2007-07-05T01:30:00Z,28.8425,-94.2433,2.0,134.9998948,8.004448763,-99999.0,'11133222,11111222,99999999' 
TABS,ioos:station:wmo:42050:1,2007-07-05T02:00:00Z,28.8425,-94.2433,2.0,179.9997895,8.0,-99999.0,'11133222,11111222,99999999' 
TABS,ioos:station:wmo:42050:1,2007-07-05T02:30:00Z,28.8425,-94.2433,2.0,201.0326805,8.999605547,-99999.0,'11133222,11111222,99999999' 
TABS,ioos:station:wmo:42050:1,2007-07-05T03:30:00Z,28.8425,-94.2433,2.0,224.9996843,9.998489886,-99999.0,'11133222,11111222,99999999' 
TABS,ioos:station:wmo:42050:1,2007-07-05T04:00:00Z,28.8425,-94.2433,2.0,254.9910649,11.00542593,-99999.0,'11111222,11111222,99999999' 
TABS,ioos:station:wmo:42050:1,2007-07-05T04:30:00Z,28.8425,-94.2433,2.0,310.9993856,14.9989333,-99999.0,'11111222,11111222,99999999' 
TABS,ioos:station:wmo:42050:1,2007-07-05T05:00:00Z,28.8425,-94.2433,2.0,268.9901888,21.00325927,-99999.0,'11111222,11111222,99999999' 
TABS,ioos:station:wmo:42050:1,2007-07-05T05:30:00Z,28.8425,-94.2433,2.0,292.989084,18.99885523,-99999.0,'11111222,11111222,99999999' 
TABS,ioos:station:wmo:42050:1,2007-07-05T06:00:00Z,28.8425,-94.2433,2.0,288.0038917,20.99811896,-99999.0,'11111222,11111222,99999999' 
TABS,ioos:station:wmo:42050:1,2007-07-05T06:30:00Z,28.8425,-94.2433,2.0,294.0016458,20.99533281,-99999.0,'11111222,11111222,99999999' 
TABS,ioos:station:wmo:42050:1,2007-07-05T07:00:00Z,28.8425,-94.2433,2.0,295.9945694,21.99505626,-99999.0,'11111222,11111222,99999999' 
TABS,ioos:station:wmo:42050:1,2007-07-05T07:30:00Z,28.8425,-94.2433,2.0,299.9956225,21.00300217,-99999.0,'11111222,11111222,99999999' 
TABS,ioos:station:wmo:42050:1,2007-07-05T08:00:00Z,28.8425,-94.2433,2.0,308.9991344,19.00511773,-99999.0,'11111222,11111222,99999999' 
TABS,ioos:station:wmo:42050:1,2007-07-05T08:30:00Z,28.8425,-94.2433,2.0,305.0051609,21.99965454,-99999.0,'11111222,11111222,99999999' 
TABS,ioos:station:wmo:42050:1,2007-07-05T09:00:00Z,28.8425,-94.2433,2.0,311.989563,21.00177612,-99999.0,'11111222,11111222,99999999' 
TABS,ioos:station:wmo:42050:1,2007-07-05T09:30:00Z,28.8425,-94.2433,2.0,324.0090308,20.99846899,-99999.0,'11111222,11111222,99999999' 